| time (UTC) | temp F | wind direction | speed MPH | gust MPH | rain 1hr in | rain 24hr in | rain mn in | humidity % | barometer mb |
| 20260507064428 | 49 | 0 | 2.0 | 4.0 | 0.00 | 0.28 | 0.00 | 64 | 1013.2 |
| 20260507063930 | 49 | 0 | 2.0 | 4.0 | 0.00 | 0.28 | 0.00 | 64 | 1013.1 |
| 20260507063423 | 49 | 349 | 2.0 | 8.0 | 0.00 | 0.28 | 0.00 | 65 | 1013.1 |
| 20260507062923 | 49 | 23 | 2.0 | 8.0 | 0.00 | 0.28 | 0.00 | 65 | 1013.1 |
| 20260507062423 | 49 | 0 | 2.0 | 5.0 | 0.00 | 0.28 | 0.00 | 65 | 1013.1 |
| 20260507061924 | 49 | 0 | 2.0 | 5.0 | 0.00 | 0.28 | 0.00 | 65 | 1013.2 |
| 20260507061422 | 49 | 349 | 1.0 | 3.0 | 0.00 | 0.28 | 0.00 | 65 | 1013.1 |
| 20260507061154 | 49 | 337 | 1.0 | 3.0 | 0.00 | 0.28 | 0.00 | 65 | 1013.2 |
| 20260507060653 | 50 | 0 | 1.0 | 3.0 | 0.00 | 0.28 | 0.00 | 65 | 1013.3 |
| 20260507055919 | 50 | 0 | 1.0 | 5.0 | 0.00 | 0.28 | 0.00 | 66 | 1013.2 |
| 20260507055419 | 50 | 0 | 2.0 | 5.0 | 0.00 | 0.28 | 0.00 | 66 | 1013.2 |
| 20260507054916 | 50 | 0 | 1.0 | 3.0 | 0.00 | 0.28 | 0.00 | 66 | 1013.4 |
| 20260507054416 | 50 | 0 | 1.0 | 3.0 | 0.00 | 0.28 | 0.00 | 66 | 1013.4 |
| 20260507053916 | 50 | 0 | 1.0 | 3.0 | 0.00 | 0.28 | 0.00 | 65 | 1013.4 |
| 20260507053409 | 50 | 0 | 2.0 | 5.0 | 0.00 | 0.28 | 0.00 | 65 | 1013.5 |
| 20260507052909 | 50 | 0 | 2.0 | 5.0 | 0.00 | 0.28 | 0.00 | 65 | 1013.6 |
| 20260507052410 | 50 | 0 | 2.0 | 4.0 | 0.00 | 0.28 | 0.00 | 65 | 1013.7 |
| 20260507051910 | 50 | 0 | 2.0 | 4.0 | 0.00 | 0.28 | 0.00 | 65 | 1013.8 |
| 20260507051410 | 50 | 344 | 1.0 | 3.0 | 0.00 | 0.28 | 0.00 | 65 | 1013.7 |
| 20260507050912 | 50 | 0 | 1.0 | 3.0 | 0.00 | 0.28 | 0.00 | 65 | 1013.7 |
| 20260507050404 | 50 | 340 | 1.0 | 3.0 | 0.00 | 0.28 | 0.00 | 65 | 1013.7 |
| 20260507045906 | 50 | 342 | 2.0 | 4.0 | 0.00 | 0.28 | 0.00 | 65 | 1013.7 |
| 20260507045403 | 50 | 0 | 2.0 | 4.0 | 0.00 | 0.28 | 0.00 | 64 | 1013.7 |
| 20260507045136 | 50 | 344 | 2.0 | 4.0 | 0.00 | 0.28 | 0.00 | 65 | 1013.8 |
| 20260507044404 | 51 | 0 | 2.0 | 3.0 | 0.00 | 0.28 | 0.00 | 64 | 1013.7 |
| 20260507043904 | 51 | 0 | 1.0 | 3.0 | 0.00 | 0.28 | 0.00 | 64 | 1013.6 |
| 20260507043358 | 51 | 0 | 1.0 | 3.0 | 0.00 | 0.28 | 0.00 | 64 | 1013.7 |
| 20260507042857 | 51 | 0 | 1.0 | 3.0 | 0.00 | 0.28 | 0.00 | 64 | 1013.6 |
| 20260507042630 | 51 | 327 | 1.0 | 3.0 | 0.00 | 0.28 | 0.00 | 64 | 1013.4 |
| 20260507041858 | 51 | 0 | 1.0 | 3.0 | 0.00 | 0.28 | 0.00 | 64 | 1013.5 |
| 20260507041358 | 51 | 327 | 1.0 | 2.0 | 0.00 | 0.28 | 0.00 | 64 | 1013.5 |
| 20260507040858 | 51 | 0 | 1.0 | 3.0 | 0.00 | 0.28 | 0.00 | 64 | 1013.6 |
| 20260507040353 | 51 | 0 | 1.0 | 3.0 | 0.00 | 0.28 | 0.00 | 64 | 1013.5 |
| 20260507040124 | 51 | 0 | 0.0 | 3.0 | 0.00 | 0.28 | 0.28 | 64 | 1013.5 |
| 20260507035353 | 51 | 0 | 0.0 | 0.0 | 0.00 | 0.28 | 0.28 | 65 | 1013.5 |
| 20260507034852 | 51 | 322 | 1.0 | 2.0 | 0.00 | 0.28 | 0.28 | 65 | 1013.5 |
| 20260507034350 | 51 | 323 | 1.0 | 3.0 | 0.00 | 0.28 | 0.28 | 66 | 1013.6 |
| 20260507033853 | 51 | 323 | 1.0 | 3.0 | 0.00 | 0.28 | 0.28 | 66 | 1013.7 |
| 20260507033345 | 51 | 323 | 1.0 | 2.0 | 0.00 | 0.28 | 0.28 | 66 | 1013.4 |
| 20260507033115 | 51 | 324 | 1.0 | 3.0 | 0.00 | 0.28 | 0.28 | 67 | 1013.6 |
| 20260507032346 | 51 | 321 | 1.0 | 3.0 | 0.00 | 0.28 | 0.28 | 68 | 1013.5 |
| 20260507031846 | 51 | 323 | 1.0 | 4.0 | 0.00 | 0.28 | 0.28 | 68 | 1013.8 |
| 20260507031616 | 52 | 0 | 1.0 | 4.0 | 0.00 | 0.28 | 0.28 | 69 | 1013.7 |
| 20260507031116 | 52 | 0 | 2.0 | 4.0 | 0.00 | 0.28 | 0.28 | 69 | 1013.4 |
| 20260507030342 | 52 | 329 | 1.0 | 3.0 | 0.00 | 0.28 | 0.28 | 70 | 1013.4 |
| 20260507030337 | 52 | 0 | 2.0 | 4.0 | 0.00 | 0.28 | 0.28 | 70 | 1013.3 |
| 20260507025340 | 52 | 0 | 0.0 | 0.0 | 0.00 | 0.28 | 0.28 | 70 | 1013.2 |
| 20260507024838 | 52 | 317 | 0.0 | 0.0 | 0.00 | 0.28 | 0.28 | 69 | 1013.1 |
| 20260507024339 | 52 | 318 | 0.0 | 0.0 | 0.00 | 0.28 | 0.28 | 70 | 1013.0 |
| 20260507023837 | 52 | 318 | 0.0 | 0.0 | 0.00 | 0.28 | 0.28 | 69 | 1013.2 |
| 20260507023336 | 52 | 0 | 0.0 | 0.0 | 0.00 | 0.28 | 0.28 | 69 | 1012.9 |
| 20260507022834 | 52 | 317 | 0.0 | 0.0 | 0.00 | 0.28 | 0.28 | 69 | 1012.9 |
| 20260507022330 | 52 | 0 | 0.0 | 0.0 | 0.00 | 0.28 | 0.28 | 69 | 1012.7 |
| 20260507022102 | 53 | 318 | 0.0 | 0.0 | 0.00 | 0.28 | 0.28 | 69 | 1012.6 |
| 20260507021331 | 53 | 0 | 0.0 | 0.0 | 0.00 | 0.28 | 0.28 | 69 | 1012.4 |
| 20260507020827 | 53 | 318 | 0.0 | 0.0 | 0.00 | 0.28 | 0.28 | 69 | 1012.4 |
| 20260507020325 | 53 | 0 | 0.0 | 0.0 | 0.00 | 0.28 | 0.28 | 69 | 1012.5 |
| 20260507015824 | 53 | 0 | 0.0 | 0.0 | 0.00 | 0.28 | 0.28 | 69 | 1012.5 |
| 20260507015555 | 53 | 0 | 0.0 | 0.0 | 0.00 | 0.28 | 0.28 | 69 | 1012.3 |
| 20260507014823 | 53 | 318 | 0.0 | 0.0 | 0.00 | 0.28 | 0.28 | 69 | 1012.1 |
| 20260507014328 | 53 | 318 | 0.0 | 0.0 | 0.00 | 0.28 | 0.28 | 68 | 1011.9 |
| 20260507014324 | 53 | 317 | 0.0 | 0.0 | 0.00 | 0.28 | 0.28 | 68 | 1012.1 |
| 20260507013320 | 53 | 317 | 0.0 | 0.0 | 0.00 | 0.28 | 0.28 | 68 | 1012.1 |
| 20260507012820 | 53 | 317 | 0.0 | 0.0 | 0.00 | 0.28 | 0.28 | 68 | 1012.2 |
| 20260507012320 | 53 | 0 | 0.0 | 0.0 | 0.00 | 0.28 | 0.28 | 68 | 1012.3 |
| 20260507011820 | 53 | 0 | 0.0 | 0.0 | 0.00 | 0.28 | 0.28 | 68 | 1011.9 |
| 20260507011319 | 53 | 317 | 0.0 | 0.0 | 0.00 | 0.28 | 0.28 | 68 | 1011.7 |
| 20260507011050 | 53 | 317 | 0.0 | 0.0 | 0.00 | 0.28 | 0.28 | 68 | 1011.8 |
| 20260507010315 | 53 | 317 | 0.0 | 0.0 | 0.00 | 0.28 | 0.28 | 68 | 1011.8 |
| 20260507005815 | 53 | 317 | 0.0 | 0.0 | 0.00 | 0.28 | 0.28 | 68 | 1011.7 |
| 20260507005316 | 53 | 317 | 0.0 | 0.0 | 0.00 | 0.28 | 0.28 | 67 | 1011.6 |
| 20260507004812 | 53 | 0 | 0.0 | 0.0 | 0.00 | 0.28 | 0.28 | 67 | 1011.8 |
| 20260507004313 | 53 | 0 | 0.0 | 0.0 | 0.00 | 0.28 | 0.28 | 67 | 1011.9 |
| 20260507004043 | 53 | 0 | 0.0 | 0.0 | 0.00 | 0.28 | 0.28 | 67 | 1011.9 |
| 20260507003310 | 53 | 317 | 0.0 | 0.0 | 0.00 | 0.28 | 0.28 | 67 | 1011.7 |
| 20260507002809 | 53 | 0 | 0.0 | 0.0 | 0.00 | 0.28 | 0.28 | 66 | 1012.0 |
| 20260507002311 | 53 | 0 | 0.0 | 0.0 | 0.00 | 0.28 | 0.28 | 66 | 1012.0 |
| 20260507002039 | 53 | 0 | 0.0 | 0.0 | 0.00 | 0.28 | 0.28 | 66 | 1011.9 |
| 20260507001308 | 53 | 0 | 0.0 | 0.0 | 0.00 | 0.28 | 0.28 | 66 | 1011.9 |
| 20260507000808 | 53 | 0 | 0.0 | 0.0 | 0.00 | 0.28 | 0.28 | 66 | 1012.2 |
| 20260507000306 | 53 | 319 | 0.0 | 1.0 | 0.00 | 0.28 | 0.28 | 66 | 1012.6 |
| 20260506235806 | 53 | 0 | 0.0 | 2.0 | 0.00 | 0.28 | 0.28 | 66 | 1012.5 |
| 20260506235307 | 53 | 0 | 0.0 | 2.0 | 0.00 | 0.28 | 0.28 | 66 | 1012.2 |
| 20260506234805 | 53 | 318 | 0.0 | 2.0 | 0.00 | 0.28 | 0.28 | 66 | 1012.1 |
| 20260506234531 | 53 | 319 | 1.0 | 2.0 | 0.00 | 0.28 | 0.28 | 66 | 1012.0 |
| 20260506233802 | 53 | 317 | 1.0 | 2.0 | 0.00 | 0.28 | 0.28 | 66 | 1012.0 |
| 20260506233257 | 53 | 0 | 1.0 | 2.0 | 0.00 | 0.28 | 0.28 | 65 | 1011.6 |
| 20260506232800 | 53 | 0 | 1.0 | 3.0 | 0.00 | 0.28 | 0.28 | 65 | 1011.8 |
| 20260506232531 | 54 | 318 | 1.0 | 3.0 | 0.00 | 0.28 | 0.28 | 65 | 1012.1 |
| 20260506231755 | 54 | 0 | 0.0 | 2.0 | 0.00 | 0.28 | 0.28 | 65 | 1011.9 |
| 20260506231254 | 54 | 319 | 0.0 | 2.0 | 0.00 | 0.28 | 0.28 | 65 | 1011.8 |
| 20260506230753 | 54 | 321 | 0.0 | 3.0 | 0.00 | 0.28 | 0.28 | 65 | 1011.8 |
| 20260506230251 | 54 | 321 | 0.0 | 3.0 | 0.00 | 0.28 | 0.28 | 65 | 1011.8 |
| 20260506225753 | 54 | 0 | 0.0 | 2.0 | 0.00 | 0.28 | 0.28 | 65 | 1011.7 |
| 20260506225525 | 54 | 0 | 1.0 | 2.0 | 0.00 | 0.28 | 0.28 | 65 | 1011.6 |
| 20260506224750 | 54 | 0 | 2.0 | 5.0 | 0.00 | 0.28 | 0.28 | 65 | 1011.6 |
| 20260506224254 | 54 | 0 | 1.0 | 6.0 | 0.00 | 0.28 | 0.28 | 65 | 1011.4 |
| 20260506224249 | 54 | 0 | 2.0 | 6.0 | 0.00 | 0.28 | 0.28 | 65 | 1011.6 |
| 20260506223247 | 54 | 333 | 2.0 | 3.0 | 0.00 | 0.28 | 0.28 | 65 | 1011.4 |
| 20260506222746 | 54 | 0 | 2.0 | 4.0 | 0.00 | 0.28 | 0.28 | 65 | 1011.6 |
| 20260506222245 | 54 | 334 | 2.0 | 4.0 | 0.00 | 0.28 | 0.28 | 65 | 1011.4 |
| 20260506222017 | 54 | 0 | 2.0 | 5.0 | 0.00 | 0.28 | 0.28 | 65 | 1011.4 |
| 20260506221517 | 54 | 336 | 2.0 | 5.0 | 0.00 | 0.28 | 0.28 | 65 | 1011.6 |
| 20260506220744 | 54 | 0 | 3.0 | 6.0 | 0.00 | 0.28 | 0.28 | 65 | 1011.4 |
| 20260506220241 | 54 | 323 | 3.0 | 6.0 | 0.00 | 0.28 | 0.28 | 65 | 1011.2 |
| 20260506215741 | 54 | 0 | 3.0 | 6.0 | 0.00 | 0.28 | 0.28 | 65 | 1011.2 |
| 20260506215241 | 54 | 0 | 3.0 | 5.0 | 0.00 | 0.28 | 0.28 | 65 | 1011.1 |
| 20260506214740 | 54 | 0 | 4.0 | 9.0 | 0.00 | 0.28 | 0.28 | 65 | 1011.1 |
| 20260506214242 | 54 | 0 | 5.0 | 9.0 | 0.00 | 0.28 | 0.28 | 65 | 1011.0 |
| 20260506213739 | 54 | 11 | 4.0 | 8.0 | 0.00 | 0.28 | 0.28 | 65 | 1010.9 |
| 20260506213238 | 54 | 0 | 3.0 | 6.0 | 0.00 | 0.28 | 0.28 | 65 | 1011.0 |
| 20260506212738 | 54 | 0 | 3.0 | 6.0 | 0.00 | 0.28 | 0.28 | 65 | 1010.8 |
| 20260506212511 | 54 | 328 | 3.0 | 8.0 | 0.00 | 0.28 | 0.28 | 64 | 1010.7 |
| 20260506211737 | 55 | 0 | 3.0 | 8.0 | 0.00 | 0.28 | 0.28 | 64 | 1010.7 |
| 20260506211235 | 55 | 13 | 3.0 | 8.0 | 0.00 | 0.28 | 0.28 | 64 | 1010.7 |
| 20260506210735 | 55 | 0 | 3.0 | 8.0 | 0.00 | 0.28 | 0.28 | 64 | 1010.7 |
| 20260506210507 | 55 | 0 | 2.0 | 8.0 | 0.00 | 0.28 | 0.28 | 64 | 1010.6 |
| 20260506205734 | 56 | 0 | 1.0 | 4.0 | 0.00 | 0.28 | 0.28 | 65 | 1010.5 |
| 20260506205504 | 56 | 0 | 2.0 | 4.0 | 0.00 | 0.28 | 0.28 | 65 | 1010.5 |
| 20260506204735 | 56 | 0 | 3.0 | 6.0 | 0.00 | 0.28 | 0.28 | 65 | 1010.4 |
| 20260506204233 | 55 | 0 | 3.0 | 6.0 | 0.00 | 0.28 | 0.28 | 65 | 1010.3 |
| 20260506203733 | 55 | 0 | 3.0 | 6.0 | 0.00 | 0.28 | 0.28 | 65 | 1010.2 |
| 20260506203232 | 55 | 0 | 2.0 | 7.0 | 0.00 | 0.28 | 0.28 | 66 | 1010.2 |
| 20260506202732 | 55 | 61 | 3.0 | 9.0 | 0.00 | 0.28 | 0.28 | 65 | 1010.2 |
| 20260506202232 | 55 | 0 | 2.0 | 9.0 | 0.00 | 0.28 | 0.28 | 65 | 1010.2 |
| 20260506201733 | 55 | 0 | 2.0 | 6.0 | 0.00 | 0.28 | 0.28 | 65 | 1010.3 |
| 20260506201231 | 55 | 0 | 2.0 | 4.0 | 0.00 | 0.28 | 0.28 | 65 | 1010.1 |
| 20260506200731 | 55 | 0 | 2.0 | 8.0 | 0.00 | 0.28 | 0.28 | 65 | 1010.0 |
| 20260506200228 | 55 | 0 | 4.0 | 11.0 | 0.00 | 0.28 | 0.28 | 65 | 1010.1 |
| 20260506195729 | 54 | 0 | 5.0 | 11.0 | 0.00 | 0.28 | 0.28 | 66 | 1010.1 |
| 20260506195228 | 54 | 0 | 5.0 | 10.0 | 0.00 | 0.28 | 0.28 | 66 | 1010.1 |
| 20260506194727 | 54 | 312 | 4.0 | 10.0 | 0.00 | 0.28 | 0.28 | 66 | 1009.9 |
| 20260506194458 | 54 | 0 | 2.0 | 8.0 | 0.00 | 0.28 | 0.28 | 67 | 1010.2 |
| 20260506193727 | 54 | 269 | 3.0 | 8.0 | 0.00 | 0.28 | 0.28 | 67 | 1010.0 |
| 20260506193227 | 54 | 338 | 4.0 | 11.0 | 0.00 | 0.28 | 0.28 | 67 | 1009.9 |
| 20260506192727 | 54 | 0 | 4.0 | 11.0 | 0.00 | 0.28 | 0.28 | 68 | 1009.9 |
| 20260506192227 | 54 | 26 | 2.0 | 8.0 | 0.00 | 0.28 | 0.28 | 69 | 1010.0 |
| 20260506191725 | 54 | 311 | 3.0 | 8.0 | 0.00 | 0.28 | 0.28 | 70 | 1010.1 |
| 20260506191226 | 53 | 348 | 3.0 | 8.0 | 0.00 | 0.28 | 0.28 | 70 | 1009.9 |
| 20260506190725 | 53 | 0 | 3.0 | 8.0 | 0.00 | 0.28 | 0.28 | 70 | 1010.0 |
| 20260506190226 | 53 | 0 | 4.0 | 9.0 | 0.00 | 0.28 | 0.28 | 70 | 1010.0 |
| 20260506185726 | 53 | 0 | 5.0 | 9.0 | 0.00 | 0.28 | 0.28 | 70 | 1010.0 |
| 20260506185223 | 53 | 0 | 5.0 | 12.0 | 0.00 | 0.28 | 0.28 | 70 | 1010.0 |
| 20260506184728 | 53 | 348 | 5.0 | 12.0 | 0.00 | 0.28 | 0.28 | 70 | 1010.0 |
| 20260506184722 | 53 | 336 | 6.0 | 12.0 | 0.00 | 0.28 | 0.28 | 70 | 1010.0 |
| 20260506183722 | 53 | 0 | 4.0 | 9.0 | 0.00 | 0.28 | 0.28 | 71 | 1009.8 |
| 20260506183226 | 53 | 13 | 5.0 | 12.0 | 0.00 | 0.28 | 0.28 | 71 | 1009.7 |
| 20260506183221 | 53 | 321 | 5.0 | 12.0 | 0.00 | 0.28 | 0.28 | 70 | 1009.7 |
| 20260506182219 | 53 | 0 | 4.0 | 10.0 | 0.00 | 0.28 | 0.28 | 71 | 1009.9 |
| 20260506181718 | 53 | 0 | 3.0 | 9.0 | 0.00 | 0.28 | 0.28 | 71 | 1009.8 |
| 20260506181218 | 53 | 0 | 3.0 | 9.0 | 0.00 | 0.28 | 0.28 | 72 | 1009.8 |
| 20260506180717 | 53 | 329 | 4.0 | 9.0 | 0.00 | 0.28 | 0.28 | 72 | 1009.9 |
| 20260506180215 | 53 | 339 | 4.0 | 9.0 | 0.00 | 0.28 | 0.28 | 72 | 1009.8 |
| 20260506175714 | 53 | 0 | 3.0 | 6.0 | 0.00 | 0.28 | 0.28 | 72 | 1009.7 |
| 20260506175215 | 53 | 0 | 3.0 | 5.0 | 0.00 | 0.28 | 0.28 | 72 | 1009.6 |
| 20260506174716 | 53 | 343 | 3.0 | 8.0 | 0.00 | 0.28 | 0.28 | 72 | 1009.7 |
| 20260506174452 | 53 | 0 | 4.0 | 10.0 | 0.00 | 0.28 | 0.28 | 72 | 1009.5 |
| 20260506174216 | 53 | 0 | 3.0 | 8.0 | 0.00 | 0.28 | 0.28 | 73 | 1009.6 |
| 20260506172714 | 53 | 313 | 4.0 | 10.0 | 0.00 | 0.28 | 0.28 | 73 | 1009.5 |
| 20260506172214 | 53 | 338 | 3.0 | 10.0 | 0.00 | 0.28 | 0.28 | 73 | 1009.4 |
| 20260506171714 | 53 | 0 | 5.0 | 11.0 | 0.00 | 0.28 | 0.28 | 72 | 1009.4 |
| 20260506171213 | 53 | 0 | 5.0 | 11.0 | 0.00 | 0.28 | 0.28 | 72 | 1009.4 |
| 20260506170713 | 53 | 342 | 4.0 | 11.0 | 0.00 | 0.28 | 0.28 | 72 | 1009.4 |
| 20260506170443 | 53 | 0 | 3.0 | 9.0 | 0.00 | 0.28 | 0.28 | 72 | 1009.4 |
| 20260506165945 | 53 | 0 | 3.0 | 9.0 | 0.00 | 0.28 | 0.28 | 72 | 1009.2 |
| 20260506165211 | 54 | 0 | 2.0 | 5.0 | 0.00 | 0.28 | 0.28 | 73 | 1009.2 |
| 20260506164711 | 54 | 38 | 2.0 | 4.0 | 0.00 | 0.28 | 0.28 | 73 | 1009.1 |
| 20260506164212 | 54 | 0 | 2.0 | 5.0 | 0.00 | 0.28 | 0.28 | 73 | 1009.0 |
| 20260506163712 | 54 | 0 | 2.0 | 5.0 | 0.00 | 0.28 | 0.28 | 73 | 1008.8 |
| 20260506163209 | 53 | 0 | 2.0 | 5.0 | 0.00 | 0.28 | 0.28 | 72 | 1008.8 |
| 20260506162708 | 53 | 0 | 2.0 | 6.0 | 0.00 | 0.28 | 0.28 | 72 | 1008.8 |
| 20260506162208 | 53 | 0 | 2.0 | 6.0 | 0.00 | 0.28 | 0.28 | 72 | 1008.7 |
| 20260506161707 | 53 | 296 | 2.0 | 5.0 | 0.00 | 0.28 | 0.28 | 72 | 1008.7 |
| 20260506161207 | 53 | 0 | 2.0 | 5.0 | 0.00 | 0.28 | 0.28 | 72 | 1008.7 |
| 20260506160712 | 53 | 13 | 4.0 | 9.0 | 0.03 | 0.28 | 0.28 | 72 | 1008.6 |
| 20260506160708 | 53 | 22 | 3.0 | 7.0 | 0.01 | 0.28 | 0.28 | 72 | 1008.7 |
| 20260506155706 | 53 | 16 | 4.0 | 11.0 | 0.03 | 0.28 | 0.28 | 72 | 1008.6 |
| 20260506155207 | 54 | 26 | 5.0 | 11.0 | 0.03 | 0.28 | 0.28 | 72 | 1008.6 |
| 20260506154707 | 54 | 26 | 5.0 | 9.0 | 0.03 | 0.28 | 0.28 | 71 | 1008.5 |
| 20260506154207 | 54 | 332 | 5.0 | 13.0 | 0.03 | 0.28 | 0.28 | 71 | 1008.4 |
| 20260506153707 | 54 | 0 | 7.0 | 13.0 | 0.03 | 0.28 | 0.28 | 71 | 1008.3 |
| 20260506153205 | 55 | 0 | 8.0 | 13.0 | 0.03 | 0.28 | 0.28 | 71 | 1008.1 |
| 20260506152707 | 55 | 0 | 6.0 | 13.0 | 0.03 | 0.28 | 0.28 | 71 | 1008.0 |
| 20260506152205 | 56 | 0 | 5.0 | 10.0 | 0.03 | 0.28 | 0.28 | 71 | 1008.1 |
| 20260506151701 | 56 | 0 | 6.0 | 12.0 | 0.03 | 0.28 | 0.28 | 70 | 1008.0 |
| 20260506151202 | 57 | 0 | 7.0 | 21.0 | 0.03 | 0.28 | 0.28 | 70 | 1008.0 |
| 20260506150700 | 59 | 0 | 6.0 | 21.0 | 0.01 | 0.26 | 0.27 | 71 | 1008.0 |
| 20260506150432 | 59 | 0 | 5.0 | 12.0 | 0.00 | 0.25 | 0.25 | 72 | 1007.7 |
| 20260506145700 | 59 | 0 | 5.0 | 11.0 | 0.00 | 0.25 | 0.25 | 72 | 1007.5 |
| 20260506145201 | 59 | 0 | 5.0 | 12.0 | 0.00 | 0.25 | 0.25 | 72 | 1007.4 |
| 20260506144931 | 59 | 0 | 5.0 | 13.0 | 0.00 | 0.25 | 0.25 | 72 | 1007.3 |
| 20260506144159 | 59 | 0 | 4.0 | 13.0 | 0.00 | 0.25 | 0.25 | 72 | 1007.1 |
| 20260506143927 | 59 | 0 | 5.0 | 12.0 | 0.00 | 0.25 | 0.25 | 72 | 1007.1 |
| 20260506143158 | 59 | 0 | 6.0 | 14.0 | 0.00 | 0.25 | 0.25 | 72 | 1006.9 |
| 20260506142925 | 59 | 0 | 6.0 | 14.0 | 0.00 | 0.25 | 0.25 | 72 | 1006.9 |
| 20260506142155 | 59 | 0 | 6.0 | 15.0 | 0.00 | 0.25 | 0.25 | 72 | 1006.9 |
| 20260506141655 | 59 | 0 | 6.0 | 15.0 | 0.00 | 0.25 | 0.25 | 72 | 1006.9 |
| 20260506141156 | 59 | 0 | 5.0 | 11.0 | 0.00 | 0.25 | 0.25 | 72 | 1006.7 |
| 20260506140925 | 59 | 0 | 6.0 | 12.0 | 0.00 | 0.25 | 0.25 | 72 | 1006.4 |
| 20260506140153 | 59 | 0 | 6.0 | 12.0 | 0.00 | 0.25 | 0.25 | 72 | 1006.5 |
| 20260506135923 | 59 | 0 | 7.0 | 15.0 | 0.00 | 0.25 | 0.25 | 72 | 1006.6 |
| 20260506135152 | 59 | 0 | 8.0 | 15.0 | 0.00 | 0.25 | 0.25 | 72 | 1006.5 |
| 20260506134652 | 59 | 0 | 7.0 | 15.0 | 0.00 | 0.25 | 0.25 | 72 | 1006.7 |
| 20260506134152 | 59 | 0 | 7.0 | 13.0 | 0.00 | 0.25 | 0.25 | 72 | 1006.8 |
| 20260506133653 | 59 | 0 | 7.0 | 17.0 | 0.00 | 0.25 | 0.25 | 72 | 1006.6 |
| 20260506133152 | 59 | 0 | 7.0 | 17.0 | 0.00 | 0.25 | 0.25 | 72 | 1006.5 |
| 20260506132650 | 59 | 0 | 6.0 | 13.0 | 0.01 | 0.25 | 0.25 | 72 | 1006.3 |
| 20260506132151 | 59 | 0 | 5.0 | 12.0 | 0.01 | 0.25 | 0.25 | 72 | 1006.2 |
| 20260506131650 | 58 | 0 | 5.0 | 13.0 | 0.01 | 0.25 | 0.25 | 72 | 1006.1 |
| 20260506131152 | 58 | 166 | 6.0 | 13.0 | 0.01 | 0.25 | 0.25 | 72 | 1006.3 |
| 20260506130649 | 58 | 0 | 6.0 | 13.0 | 0.01 | 0.25 | 0.25 | 72 | 1006.4 |
| 20260506130421 | 58 | 0 | 5.0 | 12.0 | 0.01 | 0.25 | 0.25 | 73 | 1006.2 |
| 20260506125650 | 58 | 0 | 5.0 | 12.0 | 0.01 | 0.25 | 0.25 | 72 | 1006.5 |
| 20260506125150 | 58 | 0 | 5.0 | 12.0 | 0.01 | 0.25 | 0.25 | 72 | 1006.6 |
| 20260506124651 | 58 | 0 | 5.0 | 10.0 | 0.01 | 0.25 | 0.25 | 72 | 1006.4 |
| 20260506124150 | 58 | 0 | 5.0 | 11.0 | 0.01 | 0.25 | 0.25 | 72 | 1006.4 |
| 20260506123649 | 58 | 0 | 5.0 | 13.0 | 0.01 | 0.25 | 0.25 | 72 | 1006.5 |
| 20260506123149 | 58 | 0 | 7.0 | 13.0 | 0.01 | 0.25 | 0.25 | 72 | 1006.5 |
| 20260506122649 | 58 | 0 | 7.0 | 15.0 | 0.00 | 0.24 | 0.24 | 72 | 1006.5 |
| 20260506122148 | 58 | 0 | 7.0 | 15.0 | 0.00 | 0.24 | 0.24 | 72 | 1006.5 |
| 20260506121649 | 57 | 0 | 5.0 | 11.0 | 0.00 | 0.24 | 0.24 | 72 | 1006.5 |
| 20260506121146 | 57 | 0 | 5.0 | 10.0 | 0.00 | 0.24 | 0.24 | 72 | 1006.6 |
| 20260506120647 | 57 | 0 | 6.0 | 13.0 | 0.00 | 0.24 | 0.24 | 72 | 1006.5 |
| 20260506120146 | 57 | 0 | 7.0 | 14.0 | 0.01 | 0.24 | 0.24 | 72 | 1006.4 |
| 20260506115645 | 57 | 0 | 6.0 | 14.0 | 0.02 | 0.24 | 0.24 | 72 | 1006.3 |
| 20260506115145 | 57 | 0 | 5.0 | 12.0 | 0.02 | 0.24 | 0.24 | 72 | 1006.3 |
| 20260506115043 | 57 | 0 | 4.0 | 10.0 | 0.03 | 0.24 | 0.24 | 72 | 1006.2 |
| 20260506114935 | 57 | 0 | 4.0 | 9.0 | 0.02 | 0.24 | 0.24 | 72 | 1006.2 |
| 20260506113644 | 57 | 0 | 5.0 | 12.0 | 0.03 | 0.24 | 0.24 | 72 | 1006.2 |
| 20260506113145 | 57 | 0 | 5.0 | 12.0 | 0.04 | 0.24 | 0.24 | 72 | 1006.2 |
| 20260506112643 | 57 | 0 | 5.0 | 12.0 | 0.05 | 0.24 | 0.24 | 72 | 1006.2 |
| 20260506112141 | 57 | 0 | 6.0 | 12.0 | 0.07 | 0.24 | 0.24 | 72 | 1006.3 |
| 20260506111642 | 57 | 0 | 7.0 | 13.0 | 0.07 | 0.24 | 0.24 | 72 | 1006.2 |
| 20260506111140 | 57 | 0 | 7.0 | 13.0 | 0.08 | 0.24 | 0.24 | 72 | 1006.1 |
| 20260506110639 | 57 | 0 | 6.0 | 12.0 | 0.10 | 0.24 | 0.24 | 72 | 1006.1 |
| 20260506110138 | 57 | 0 | 5.0 | 12.0 | 0.10 | 0.23 | 0.23 | 72 | 1006.3 |
| 20260506110032 | 57 | 0 | 5.0 | 12.0 | 0.10 | 0.22 | 0.22 | 72 | 1006.5 |
| 20260506105928 | 57 | 0 | 5.0 | 12.0 | 0.10 | 0.22 | 0.22 | 72 | 1006.5 |
| 20260506104637 | 57 | 0 | 5.0 | 11.0 | 0.10 | 0.22 | 0.22 | 72 | 1006.3 |
| 20260506104137 | 57 | 0 | 5.0 | 13.0 | 0.10 | 0.21 | 0.21 | 72 | 1006.3 |
| 20260506103636 | 57 | 0 | 6.0 | 13.0 | 0.11 | 0.21 | 0.21 | 71 | 1006.3 |
| 20260506103137 | 57 | 0 | 5.0 | 11.0 | 0.12 | 0.20 | 0.21 | 71 | 1006.3 |
| 20260506102636 | 57 | 0 | 5.0 | 12.0 | 0.12 | 0.19 | 0.19 | 71 | 1006.5 |
| 20260506102135 | 57 | 0 | 6.0 | 12.0 | 0.11 | 0.17 | 0.18 | 71 | 1006.4 |
| 20260506101635 | 57 | 0 | 5.0 | 10.0 | 0.11 | 0.17 | 0.17 | 71 | 1006.3 |
| 20260506101137 | 57 | 0 | 5.0 | 10.0 | 0.11 | 0.16 | 0.16 | 71 | 1006.3 |
| 20260506100636 | 57 | 0 | 4.0 | 10.0 | 0.09 | 0.14 | 0.14 | 71 | 1006.4 |
| 20260506100139 | 57 | 227 | 3.0 | 8.0 | 0.08 | 0.12 | 0.12 | 70 | 1006.4 |
| 20260506100133 | 57 | 0 | 4.0 | 8.0 | 0.09 | 0.13 | 0.13 | 70 | 1006.5 |
| 20260506095134 | 57 | 200 | 3.0 | 6.0 | 0.09 | 0.12 | 0.12 | 70 | 1006.4 |
| 20260506094633 | 57 | 0 | 3.0 | 5.0 | 0.09 | 0.12 | 0.12 | 70 | 1006.3 |
| 20260506094405 | 57 | 195 | 2.0 | 5.0 | 0.09 | 0.11 | 0.11 | 70 | 1006.5 |
| 20260506093633 | 58 | 202 | 2.0 | 4.0 | 0.09 | 0.10 | 0.10 | 70 | 1006.6 |
| 20260506093132 | 58 | 198 | 2.0 | 5.0 | 0.07 | 0.08 | 0.09 | 70 | 1006.6 |
| 20260506092630 | 58 | 182 | 2.0 | 5.0 | 0.06 | 0.07 | 0.07 | 70 | 1006.8 |
| 20260506092130 | 58 | 79 | 1.0 | 3.0 | 0.05 | 0.06 | 0.07 | 70 | 1006.9 |
| 20260506091630 | 58 | 78 | 0.0 | 2.0 | 0.05 | 0.06 | 0.06 | 70 | 1007.0 |
| 20260506091130 | 58 | 78 | 0.0 | 2.0 | 0.04 | 0.05 | 0.05 | 70 | 1006.8 |
| 20260506090629 | 58 | 78 | 0.0 | 2.0 | 0.04 | 0.05 | 0.05 | 69 | 1006.8 |
| 20260506090129 | 59 | 78 | 0.0 | 3.0 | 0.04 | 0.04 | 0.04 | 69 | 1006.8 |
| 20260506085859 | 59 | 82 | 0.0 | 3.0 | 0.04 | 0.04 | 0.04 | 69 | 1006.8 |
| 20260506085128 | 59 | 78 | 0.0 | 0.0 | 0.03 | 0.03 | 0.04 | 69 | 1006.7 |
| 20260506084628 | 59 | 78 | 0.0 | 0.0 | 0.03 | 0.03 | 0.03 | 70 | 1006.8 |
| 20260506084127 | 59 | 78 | 0.0 | 0.0 | 0.02 | 0.02 | 0.02 | 70 | 1006.7 |
| 20260506083626 | 59 | 78 | 0.0 | 2.0 | 0.01 | 0.01 | 0.02 | 70 | 1006.7 |
| 20260506083357 | 59 | 78 | 0.0 | 2.0 | 0.01 | 0.01 | 0.01 | 70 | 1006.5 |
| 20260506082625 | 59 | 78 | 0.0 | 2.0 | 0.01 | 0.01 | 0.01 | 70 | 1006.6 |
| 20260506082123 | 59 | 78 | 0.0 | 1.0 | 0.01 | 0.01 | 0.01 | 70 | 1006.5 |
| 20260506081625 | 59 | 78 | 0.0 | 1.0 | 0.01 | 0.01 | 0.01 | 71 | 1006.6 |
| 20260506081125 | 59 | 78 | 1.0 | 3.0 | 0.01 | 0.01 | 0.01 | 71 | 1006.4 |
| 20260506080610 | 59 | 78 | 1.0 | 3.0 | 0.01 | 0.01 | 0.01 | 71 | 1007.0 |
| 20260506080340 | 60 | 78 | 1.0 | 3.0 | 0.00 | 0.00 | 0.00 | 71 | 1007.0 |
| 20260506072835 | 61 | 79 | 1.0 | 3.0 | 0.00 | 0.00 | 0.00 | 69 | 1007.1 |
| 20260506072328 | 61 | 27 | 0.0 | 3.0 | 0.00 | 0.00 | 0.00 | 69 | 1006.9 |
| 20260506071556 | 61 | 335 | 0.0 | 0.0 | 0.00 | 0.00 | 0.00 | 69 | 1007.3 |
| 20260506071057 | 61 | 334 | 0.0 | 0.0 | 0.00 | 0.00 | 0.00 | 68 | 1007.4 |
| 20260506070558 | 62 | 336 | 0.0 | 0.0 | 0.00 | 0.00 | 0.00 | 67 | 1007.3 |
| 20260506070327 | 62 | 335 | 0.0 | 2.0 | 0.00 | 0.00 | 0.00 | 67 | 1007.3 |